This is the latest recevied weather packets stored in our database for station/object KC1OEK-13. If no packets are shown the sender has not sent any weather packets the latest 10 day(s).
| Time | Temp. | Humidity | Pressure | Rain* | Wind** | Luminosity | Snow |
|---|---|---|---|---|---|---|---|
| 1778088819 | 15.56° C | 92% | 1009.7 hPa | 0 mm | - | 142 W/m² | - |
| 1778088517 | 15.56° C | 91% | 1009.7 hPa | 1.27 mm | - | 114 W/m² | - |
| 1778088213 | 16.11° C | 91% | 1009.9 hPa | 3.05 mm | - | 109 W/m² | - |
| 1778087911 | 16.11° C | 90% | 1010 hPa | 1.78 mm | - | 108 W/m² | - |
| 1778087607 | 16.67° C | 89% | 1010.2 hPa | 1.27 mm | - | 96 W/m² | - |
| 1778087305 | 16.67° C | 88% | 1010.4 hPa | 1.27 mm | - | 96 W/m² | - |
| 1778087001 | 16.67° C | 87% | 1010.4 hPa | 0 mm | - | 86 W/m² | - |
| 1778086700 | 17.22° C | 86% | 1010.5 hPa | 0 mm | - | 78 W/m² | - |
| 1778086398 | 17.22° C | 84% | 1010.7 hPa | 0 mm | - | 71 W/m² | - |
| 1778086094 | 17.78° C | 82% | 1010.5 hPa | 0 mm | - | 68 W/m² | - |
| 1778085790 | 17.78° C | 79% | 1010.7 hPa | 0 mm | - | 78 W/m² | - |
| 1778085488 | 17.78° C | 79% | 1010.7 hPa | 0 mm | - | 52 W/m² | - |
| 1778085182 | 18.33° C | 77% | 1010.5 hPa | 0 mm | - | 65 W/m² | - |
| 1778084878 | 18.33° C | 77% | 1010.7 hPa | 0 mm | - | 103 W/m² | - |
| 1778084576 | 18.89° C | 77% | 1010.7 hPa | 0 mm | - | 155 W/m² | - |
| 1778084273 | 18.89° C | 76% | 1010.7 hPa | 0 mm | - | 204 W/m² | - |
| 1778083971 | 18.89° C | 76% | 1010.7 hPa | 0 mm | - | 213 W/m² | - |
| 1778083668 | 18.89° C | 77% | 1010.6 hPa | 0 mm | - | 268 W/m² | - |
| 1778083365 | 18.89° C | 76% | 1010.6 hPa | 0 mm | - | 199 W/m² | - |
| 1778083064 | 18.89° C | 75% | 1010.6 hPa | 0 mm | - | 207 W/m² | - |
| 1778082759 | 18.89° C | 74% | 1010.8 hPa | 0 mm | - | 164 W/m² | - |
| 1778081627 | 19.44° C | 74% | 1011.1 hPa | 0 mm | - | 234 W/m² | - |
| 1778081324 | 18.89° C | 74% | 1011.2 hPa | 0 mm | - | 267 W/m² | - |
| 1778081021 | 18.89° C | 74% | 1011.1 hPa | 0 mm | - | 197 W/m² | - |
| 1778080720 | 18.89° C | 74% | 1010.9 hPa | 0 mm | - | 239 W/m² | - |
* Rain latest hour (hover to see other rain measurements)
** Current wind speed in m/s (hover to see current wind gust speed)